Dewpoint
59 60 59 59 59 59 59 59 58 58 58 57 58 58 57 56 55 54 54 55 56 58 58 57 58 59 58 60 63 65 65 65 64 63 63 63 63 63 61 60 60 60 60
59 59 59 59 59 59 58 58 58 58 58 57 57 57 56 56 55 55 54 54 55 57 59 59 58 58 59 59 60 64 64 65 65 64 64 63 63 63 63 63 63 63 62
60 60 59 58 58 58 58 58 57 57 57 56 56 56 55 55 55 55 54 53 53 55 56 59 60 60 59 59 60 61 63 64 65 65 64 64 63 63 64 64 64 64 64
59 59 58 58 58 58 57 56 56 56 55 55 54 55 54 55 55 54 54 54 53 52 54 56 58 60 60 61 60 60 62 62 62 63 64 65 64 64 64 64 64 64 64
58 58 57 57 57 57 56 56 56 55 55 55 55 55 55 55 55 54 54 54 53 53 53 54 55 57 59 60 61 61 63 62 61 62 62 63 64 65 65 64 64 64 64
56 56 56 56 57 57 57 57 56 56 56 56 55 55 56 56 56 55 54 54 54 54 53 53 53 53 55 56 58 60 61 63 63 62 62 62 62 63 64 64 64 64 65
55 55 54 53 55 55 55 56 56 56 56 57 55 54 55 56 56 56 56 55 55 55 55 54 54 53 52 56 56 58 59 61 62 63 63 63 62 62 62 63 63 64 64
44 42 44 45 45 47 47 48 50 50 52 53 54 54 52 51 53 56 56 55 55 55 55 55 55 54 54 53 53 56 57 59 60 61 63 63 63 63 63 63 63 63 63
42 41 42 42 43 44 44 45 46 46 45 45 47 51 48 47 50 49 52 53 54 55 55 55 55 55 55 54 54 54 55 56 58 60 61 62 63 64 64 64 64 64 63
41 39 40 41 41 42 42 43 42 44 43 43 44 42 47 48 44 43 40 46 47 49 52 52 54 54 55 55 55 54 54 56 57 60 61 61 62 62 62 64 64 64 63
40 37 38 39 39 39 41 42 41 42 42 43 43 44 44 45 46 45 44 41 45 44 47 49 50 52 54 55 56 56 56 56 58 60 62 62 62 63 63 63 63 64 63
35 33 33 34 35 35 37 36 38 40 41 42 43 43 43 44 44 44 43 42 42 42 43 46 47 48 50 53 55 55 56 57 58 59 61 62 63 62 63 63 63 64 63
30 29 30 28 29 30 29 30 34 40 40 40 41 42 42 40 38 39 41 41 42 42 43 44 44 45 47 50 51 53 53 56 57 57 58 59 59 61 61 62 62 63 63
26 26 26 24 24 23 21 25 29 38 34 36 40 36 35 32 35 38 40 42 40 39 38 36 37 38 40 42 46 48 45 49 52 55 54 55 57 57 58 59 60 60 61
18 21 22 21 22 20 20 23 24 27 25 28 33 30 31 32 37 39 42 43 40 37 31 29 30 34 39 40 39 34 39 46 51 52 53 54 55 55 56 57 58 58 59
19 19 18 18 19 17 17 18 21 22 20 23 24 25 30 32 35 39 39 37 38 34 32 30 31 37 35 33 35 36 35 42 45 48 50 50 52 53 54 55 56 57 57
17 16 15 15 14 14 14 16 16 16 19 23 24 27 29 29 26 28 33 33 31 30 30 29 35 35 34 34 35 36 36 35 42 47 49 48 49 51 53 53 54 55 56
15 14 13 13 12 13 14 13 14 18 20 22 24 29 24 19 22 23 25 26 29 30 32 31 36 33 32 34 36 36 35 39 39 41 42 48 46 46 48 51 53 54 54
14 13 14 13 12 14 14 14 16 20 21 23 24 24 22 21 21 24 27 28 30 29 32 33 30 32 34 34 34 34 35 36 37 40 40 41 44 45 46 46 48 52 53
14 14 13 13 14 13 15 15 20 22 22 23 23 23 22 22 23 26 26 29 29 31 31 31 31 30 31 31 32 30 32 34 35 35 38 39 41 43 45 46 49 50 51
14 14 14 13 14 15 11 21 23 23 23 23 23 23 24 27 30 30 28 29 30 30 30 29 29 29 29 28 29 30 29 32 35 39 37 37 40 42 44 42 44 49 50
14 15 14 13 14 13 24 27 27 24 24 23 23 24 24 28 28 32 32 31 30 30 29 32 29 27 27 29 31 32 33 31 33 36 35 36 37 39 41 41 43 45 47
14 14 13 13 14 15 25 28 29 24 24 23 23 24 25 25 30 29 31 31 33 31 29 27 27 29 30 28 32 33 33 34 32 34 35 32 35 37 40 40 44 45 46
14 13 13 14 15 15 25 27 28 23 23 22 23 24 25 28 28 26 26 34 26 24 26 27 27 27 29 31 31 30 32 32 33 34 34 32 37 35 39 43 45 46 46
14 14 14 15 14 16 24 27 27 23 22 22 23 24 29 24 26 29 34 25 23 24 26 28 28 30 30 31 31 31 32 30 29 30 34 33 33 35 38 40 41 41 42
15 16 15 15 19 16 24 27 26 22 23 22 25 28 27 24 28 34 24 22 23 24 25 25 26 26 28 28 31 31 33 30 30 28 33 32 32 32 32 36 35 36 36
Lifted_Index
6 6 7 7 7 7 7 6 6 6 6 6 7 7 7 7 7 7 7 8 8 8 9 9 9 8 7 6 4 3 2 2 2 3 3 3 3 3 3 3 3 3 3
6 6 6 6 6 6 6 5 5 5 5 5 5 6 6 6 6 6 6 7 7 7 8 8 8 8 7 6 5 4 2 1 1 2 2 2 2 2 2 2 2 2 2
5 5 5 5 5 5 4 4 4 4 4 4 5 5 5 5 5 5 5 5 6 6 6 6 6 6 6 6 6 4 3 2 1 1 1 1 1 1 1 1 1 0 0
4 4 4 4 4 3 3 3 3 4 4 4 5 5 4 4 4 5 5 5 5 5 5 5 5 5 5 5 5 4 3 3 2 1 0 0 0 0 0 -0 -1 -1 -1
4 3 3 3 3 3 3 3 4 4 4 5 5 5 5 5 5 5 5 5 5 5 5 5 5 4 4 4 4 4 3 2 2 1 1 0 -0 -1 -1 -1 -1 -2 -2
3 3 3 3 4 4 4 5 5 5 5 6 6 6 6 5 5 5 5 5 5 4 4 4 4 4 4 3 3 3 3 2 1 1 1 0 -0 -1 -1 -2 -2 -2 -2
5 5 6 6 6 7 7 7 8 7 7 7 7 7 7 6 6 6 5 5 4 4 4 4 4 3 3 3 3 2 2 2 1 1 0 -0 -1 -1 -1 -2 -2 -2 -2
8 8 9 9 10 10 11 11 11 10 10 9 9 8 8 8 7 7 6 5 5 4 4 4 3 3 3 3 2 2 2 2 1 1 0 -1 -1 -1 -2 -2 -2 -2 -2
11 11 11 12 12 13 13 13 13 13 13 12 11 10 10 9 9 9 8 7 7 6 5 5 4 4 3 3 3 2 2 2 1 1 0 -0 -1 -1 -1 -2 -2 -2 -2
12 13 13 13 13 14 14 14 15 15 15 14 14 13 12 12 12 11 11 10 9 8 7 7 6 5 4 3 3 2 2 2 1 0 -0 -0 -1 -1 -1 -1 -2 -2 -2
13 13 13 14 14 15 16 16 16 16 16 16 15 14 14 13 13 13 12 12 12 11 10 9 8 7 5 3 2 2 2 1 1 0 -0 -1 -1 -1 -1 -1 -2 -2 -2
12 13 13 15 16 17 18 19 19 18 18 17 16 15 15 14 14 14 14 13 13 13 12 11 10 8 6 4 3 2 1 1 0 0 -0 -1 -1 -1 -2 -2 -2 -2 -3
13 14 15 17 18 20 20 20 20 19 19 18 17 17 16 17 16 16 15 14 14 14 13 13 11 10 8 6 5 3 2 2 1 0 0 0 -0 -0 -1 -1 -1 -2 -2
15 17 19 20 21 21 21 21 21 20 20 20 19 19 19 19 18 17 15 13 13 13 14 13 12 10 8 7 6 5 4 3 2 1 1 1 1 0 0 -0 -0 -1 -1
19 20 21 22 22 22 21 21 21 21 21 21 21 21 21 20 18 16 13 11 10 11 12 12 10 8 7 7 7 7 6 4 3 2 2 2 1 1 1 0 0 0 0
21 22 22 22 22 21 21 21 21 21 21 21 21 21 21 19 17 14 12 10 9 9 10 10 9 8 8 8 8 8 7 6 4 3 3 3 2 2 1 1 1 1 0
23 22 22 22 21 21 21 21 21 21 21 21 21 21 19 18 16 14 12 11 10 10 10 9 8 8 9 9 9 8 8 7 5 4 4 3 3 3 2 1 1 1 1
22 22 22 22 21 21 21 21 21 21 21 21 20 19 17 16 15 14 13 12 11 11 10 10 9 9 9 9 9 9 9 8 7 6 5 5 4 4 3 2 1 1 1
22 22 22 21 21 21 21 21 22 22 21 20 18 16 16 15 15 14 13 13 12 11 11 10 10 10 10 10 10 10 10 9 8 8 7 6 6 5 4 3 2 1 1
22 21 21 21 21 21 21 22 21 21 19 17 16 15 15 15 15 14 13 13 12 12 11 11 11 11 11 11 11 11 11 10 9 9 8 8 7 6 5 4 3 2 2
21 21 21 21 21 21 21 21 20 18 17 16 15 15 15 15 14 13 13 12 12 11 11 11 11 11 11 11 12 12 12 11 10 9 9 8 8 7 6 4 4 3 3
20 20 20 20 20 20 20 19 17 16 15 15 16 15 15 14 13 13 13 12 12 11 10 10 10 10 11 11 11 11 12 12 11 10 10 9 9 8 7 6 5 4 4
20 20 20 20 20 19 18 17 16 15 15 16 15 15 14 13 13 13 13 12 11 11 10 9 9 9 9 9 9 10 11 12 12 11 11 10 9 9 8 7 6 5 5
20 20 20 19 18 17 16 16 16 16 16 16 15 14 13 13 13 13 12 12 12 11 10 9 8 8 8 9 9 10 11 12 11 11 11 11 10 9 8 7 6 6 5
20 20 19 18 17 16 16 16 16 16 15 15 14 13 13 13 13 12 12 12 13 12 11 10 9 9 9 9 9 10 11 11 10 10 11 11 10 9 9 8 7 6 6
20 19 18 17 16 16 16 16 16 16 15 14 14 13 13 13 12 12 12 13 13 13 12 11 10 10 9 10 10 10 11 11 10 10 11 11 11 10 9 8 8 7 6